N9MOX Weather Reports


time (UTC)temp
C
wind
direction
speed
KPH
gust
KPH
rain 1hr
cm
rain 24hr
cm
rain mn
cm
humidity
%
barometer
mb
20260509054527 12 207 1.6 12.9 0.28 1.83 0.43 95 1008.6
20260509053025 12 184 1.6 11.3 0.23 1.73 0.33 95 1008.6
20260509051523 12 186 3.2 12.9 0.20 1.65 0.25 95 1008.5
20260509050022 12 196 3.2 11.3 0.20 1.63 0.23 95 1008.5
20260509044519 12 205 3.2 9.7 0.15 1.55 0.15 95 1008.5
20260509043015 12 196 3.2 12.9 0.15 1.50 0.10 95 1008.4
20260509041517 12 187 1.6 14.5 0.15 1.42 0.05 95 1008.6
20260509040012 12 184 4.8 12.9 0.20 1.42 0.03 95 1008.6
20260509034509 12 188 3.2 11.3 0.18 1.37 1.37 95 1008.6
20260509033009 12 173 1.6 8.0 0.33 1.35 1.35 95 1008.7
20260509031509 12 184 3.2 14.5 0.41 1.30 1.30 95 1008.7
20260509030008 12 175 3.2 12.9 0.41 1.22 1.22 95 1008.9
20260509024507 12 188 4.8 11.3 0.43 1.19 1.19 95 1009.1
20260509023005 12 216 0.0 6.4 0.30 1.02 1.02 94 1009.3
20260509021505 12 218 1.6 16.1 0.18 0.89 0.89 94 1009.2
20260509020005 12 174 8.0 19.3 0.15 0.81 0.81 94 1009.1
20260509014504 12 186 1.6 14.5 0.13 0.76 0.76 94 1009.0
20260509013003 12 204 0.0 4.8 0.15 0.71 0.71 94 1009.1
20260509011502 12 192 1.6 8.0 0.25 0.71 0.71 94 1008.9
20260509010002 12 189 1.6 8.0 0.28 0.66 0.66 94 1008.7
20260509004501 12 210 0.0 4.8 0.25 0.61 0.61 94 1008.7
20260509003101 12 184 0.0 6.4 0.28 0.56 0.56 94 1008.8
20260509001600 12 246 0.0 6.4 0.25 0.46 0.46 94 1009.1
20260509000100 12 236 0.0 6.4 0.20 0.38 0.38 93 1009.1
20260508234600 12 180 0.0 3.2 0.23 0.36 0.36 93 1008.9
20260508233110 12 275 0.0 9.7 0.23 0.28 0.28 93 1009.0
20260508231559 13 313 0.0 0.0 0.18 0.20 0.20 92 1009.2
20260508230105 13 313 0.0 0.0 0.18 0.18 0.18 91 1009.1
20260508224556 13 313 0.0 4.8 0.13 0.13 0.13 90 1009.2
20260508223055 13 331 3.2 6.4 0.05 0.05 0.05 89 1009.3
20260508221553 14 324 1.6 9.7 0.03 0.03 0.03 85 1009.3
20260508220054 15 269 4.8 17.7 0.00 0.00 0.00 76 1008.9
20260508214548 15 238 6.4 17.7 0.00 0.00 0.00 69 1008.9
20260508213047 16 219 4.8 12.9 0.00 0.00 0.00 65 1008.6
20260508211546 17 220 1.6 6.4 0.00 0.00 0.00 63 1008.4
20260508210046 17 201 3.2 6.4 0.00 0.00 0.00 60 1008.5
20260508204547 17 209 1.6 4.8 0.00 0.00 0.00 60 1008.4
20260508203044 17 215 0.0 6.4 0.00 0.00 0.00 60 1008.5
20260508201543 17 186 0.0 8.0 0.00 0.00 0.00 60 1008.8
20260508200051 17 209 0.0 4.8 0.00 0.00 0.00 59 1009.1
20260508194538 17 240 0.0 3.2 0.00 0.00 0.00 60 1009.3
20260508193036 17 189 0.0 3.2 0.00 0.00 0.00 61 1009.6
20260508191534 17 188 0.0 6.4 0.00 0.00 0.00 59 1009.8
20260508190041 17 208 3.2 8.0 0.00 0.00 0.00 56 1010.0
20260508184537 17 209 3.2 12.9 0.00 0.00 0.00 57 1010.2
20260508183031 17 210 4.8 11.3 0.00 0.00 0.00 54 1010.1
20260508181530 17 278 3.2 9.7 0.00 0.00 0.00 55 1010.3
20260508180029 18 198 4.8 12.9 0.00 0.00 0.00 55 1010.4
20260508174536 18 226 4.8 12.9 0.00 0.00 0.00 54 1010.3
20260508173025 18 188 4.8 19.3 0.00 0.00 0.00 56 1010.6
20260508171523 18 192 6.4 17.7 0.00 0.00 0.00 55 1011.0
20260508170019 18 219 3.2 20.9 0.00 0.00 0.00 58 1011.3
20260508164525 17 205 3.2 14.5 0.00 0.00 0.00 60 1011.7
20260508163013 18 195 6.4 20.9 0.00 0.00 0.00 58 1011.8
20260508161513 17 223 3.2 16.1 0.00 0.00 0.00 58 1012.0
20260508160010 16 227 3.2 14.5 0.00 0.00 0.00 58 1012.0
20260508154509 17 189 4.8 9.7 0.00 0.00 0.00 55 1012.1
20260508153007 17 193 4.8 11.3 0.00 0.00 0.00 57 1012.1
20260508151504 16 225 4.8 17.7 0.00 0.00 0.00 59 1012.2
20260508150005 16 236 3.2 22.5 0.00 0.00 0.00 59 1012.4
20260508144559 16 200 4.8 14.5 0.00 0.00 0.00 58 1012.5
20260508143057 15 199 6.4 16.1 0.00 0.00 0.00 61 1012.6
20260508141553 15 192 8.0 19.3 0.00 0.00 0.00 61 1012.8
20260508140049 14 205 4.8 20.9 0.00 0.00 0.00 61 1012.9
20260508134545 13 222 3.2 9.7 0.00 0.00 0.00 64 1013.0
20260508133041 13 214 1.6 6.4 0.00 0.00 0.00 64 1013.2
20260508131536 12 198 1.6 12.9 0.00 0.00 0.00 66 1013.3
20260508130044 11 190 1.6 12.9 0.00 0.00 0.00 68 1013.1
20260508124532 11 196 4.8 9.7 0.00 0.00 0.00 69 1013.2
20260508123029 10 194 1.6 8.0 0.00 0.00 0.00 70 1013.3
20260508121528 10 195 1.6 4.8 0.00 0.00 0.00 69 1013.4
20260508120028 10 220 1.6 9.7 0.00 0.00 0.00 71 1013.2
20260508114527 9 194 3.2 12.9 0.00 0.00 0.00 70 1013.0
20260508113024 9 192 3.2 11.3 0.00 0.00 0.00 71 1013.0
20260508111523 8 179 4.8 9.7 0.00 0.00 0.00 70 1012.9
20260508110021 8 192 3.2 11.3 0.00 0.00 0.00 69 1012.8
20260508104533 9 194 1.6 8.0 0.00 0.00 0.00 69 1012.8
20260508103020 9 194 1.6 6.4 0.00 0.00 0.00 67 1012.7
20260508101515 10 180 1.6 6.4 0.00 0.00 0.00 65 1012.7
20260508100015 10 188 1.6 8.0 0.00 0.00 0.00 66 1012.6
20260508094509 10 192 1.6 3.2 0.00 0.00 0.00 65 1012.7
20260508093008 10 215 0.0 4.8 0.00 0.00 0.00 64 1012.7
20260508091507 11 215 1.6 4.8 0.00 0.00 0.00 64 1012.7
20260508090006 11 220 1.6 4.8 0.00 0.00 0.00 63 1012.9
20260508084505 11 238 1.6 6.4 0.00 0.00 0.00 63 1013.0
20260508083003 11 234 1.6 12.9 0.00 0.00 0.00 63 1013.1
20260508081501 11 240 1.6 6.4 0.00 0.00 0.00 64 1013.1
20260508080111 10 222 1.6 6.4 0.00 0.00 0.00 64 1013.0
20260508074557 10 219 1.6 4.8 0.00 0.00 0.00 65 1013.2
20260508073059 10 205 1.6 6.4 0.00 0.00 0.00 66 1013.1
20260508071602 10 174 1.6 4.8 0.00 0.00 0.00 66 1013.1
20260508070139 10 166 1.6 3.2 0.00 0.00 0.00 66 1013.3
20260508064606 10 160 1.6 6.4 0.00 0.00 0.00 65 1013.4
20260508063052 10 198 1.6 6.4 0.00 0.00 0.00 65 1013.4
20260508061554 10 196 1.6 6.4 0.00 0.00 0.00 64 1013.5
20260508060049 10 186 1.6 6.4 0.00 0.00 0.00 65 1013.7